Time,TemperatureF,DewpointF,PressureIn,WindDirection,WindDirectionDegrees,WindSpeedMPH,WindSpeedGustMPH,Humidity,HourlyPrecipIn,Conditions,Clouds,dailyrainin,SoftwareType,DateUTC
2013-04-25 00:02:00,68.4,13.7,29.78,South,175,8.0,12.0,12,0.00,,,0.00,Wunderground v.1.15,2013-04-25 07:02:00,
2013-04-25 00:07:00,68.5,13.8,29.79,SSE,155,8.0,12.0,12,0.00,,,0.00,Wunderground v.1.15,2013-04-25 07:07:00,
2013-04-25 00:13:00,68.3,13.7,29.79,SSE,155,7.0,8.0,12,0.00,,,0.00,Wunderground v.1.15,2013-04-25 07:13:00,
2013-04-25 00:18:00,67.9,13.3,29.78,SE,143,4.0,8.0,12,0.00,,,0.00,Wunderground v.1.15,2013-04-25 07:18:00,
2013-04-25 00:23:00,67.4,13.0,29.78,SSE,157,2.0,5.0,12,0.00,,,0.00,Wunderground v.1.15,2013-04-25 07:23:00,
2013-04-25 00:29:00,67.0,12.6,29.78,ESE,109,1.0,5.0,12,0.00,,,0.00,Wunderground v.1.15,2013-04-25 07:29:00,
2013-04-25 00:34:00,66.4,12.2,29.78,ESE,113,3.0,3.0,12,0.00,,,0.00,Wunderground v.1.15,2013-04-25 07:34:00,
2013-04-25 00:40:00,66.2,13.8,29.77,SE,127,0.0,1.0,13,0.00,,,0.00,Wunderground v.1.15,2013-04-25 07:40:00,
2013-04-25 00:45:00,66.2,13.8,29.78,SE,139,0.0,1.0,13,0.00,,,0.00,Wunderground v.1.15,2013-04-25 07:45:00,
2013-04-25 00:51:00,66.2,13.8,29.77,ESE,110,2.0,2.0,13,0.00,,,0.00,Wunderground v.1.15,2013-04-25 07:51:00,
2013-04-25 00:56:00,66.3,13.9,29.76,East,97,2.0,2.0,13,0.00,,,0.00,Wunderground v.1.15,2013-04-25 07:56:00,
2013-04-25 01:01:00,65.6,13.4,29.76,East,91,2.0,3.0,13,0.00,,,0.00,Wunderground v.1.15,2013-04-25 08:01:00,
2013-04-25 01:07:00,65.6,13.4,29.77,East,101,0.0,4.0,13,0.00,,,0.00,Wunderground v.1.15,2013-04-25 08:07:00,
2013-04-25 01:12:00,65.6,13.4,29.77,East,101,0.0,2.0,13,0.00,,,0.00,Wunderground v.1.15,2013-04-25 08:12:00,
2013-04-25 01:17:00,65.4,13.2,29.76,East,97,0.0,2.0,13,0.00,,,0.00,Wunderground v.1.15,2013-04-25 08:17:00,
2013-04-25 01:23:00,65.4,13.2,29.78,SSE,148,3.0,3.0,13,0.00,,,0.00,Wunderground v.1.15,2013-04-25 08:23:00,
2013-04-25 01:28:00,64.9,14.5,29.78,SE,139,4.0,4.0,14,0.00,,,0.00,Wunderground v.1.15,2013-04-25 08:28:00,
2013-04-25 01:34:00,64.9,14.5,29.77,South,170,5.0,7.0,14,0.00,,,0.00,Wunderground v.1.15,2013-04-25 08:34:00,
2013-04-25 01:39:00,65.5,15.0,29.77,SSE,164,9.0,9.0,14,0.00,,,0.00,Wunderground v.1.15,2013-04-25 08:39:00,
2013-04-25 01:45:00,65.9,16.9,29.77,South,176,5.0,9.0,15,0.00,,,0.00,Wunderground v.1.15,2013-04-25 08:45:00,
2013-04-25 01:50:00,65.9,16.9,29.77,SSW,198,5.0,6.0,15,0.00,,,0.00,Wunderground v.1.15,2013-04-25 08:50:00,
2013-04-25 01:56:00,65.4,16.5,29.77,South,187,4.0,6.0,15,0.00,,,0.00,Wunderground v.1.15,2013-04-25 08:56:00,
2013-04-25 02:01:00,64.8,17.5,29.76,SSW,198,2.0,4.0,16,0.00,,,0.00,Wunderground v.1.15,2013-04-25 09:01:00,
2013-04-25 02:06:00,63.9,16.8,29.76,SW,219,1.0,4.0,16,0.00,,,0.00,Wunderground v.1.15,2013-04-25 09:06:00,
2013-04-25 02:11:00,63.2,16.2,29.77,South,188,3.0,3.0,16,0.00,,,0.00,Wunderground v.1.15,2013-04-25 09:11:00,
2013-04-25 02:16:00,62.8,15.9,29.77,SW,224,0.0,3.0,16,0.00,,,0.00,Wunderground v.1.15,2013-04-25 09:16:00,
2013-04-25 02:21:00,62.5,17.0,29.76,SSW,200,0.0,1.0,17,0.00,,,0.00,Wunderground v.1.15,2013-04-25 09:21:00,
2013-04-25 02:26:00,62.4,17.0,29.76,SE,129,1.0,2.0,17,0.00,,,0.00,Wunderground v.1.15,2013-04-25 09:26:00,
2013-04-25 02:31:00,62.4,17.0,29.77,East,94,1.0,2.0,17,0.00,,,0.00,Wunderground v.1.15,2013-04-25 09:31:00,
2013-04-25 02:36:00,62.3,16.9,29.77,East,97,2.0,2.0,17,0.00,,,0.00,Wunderground v.1.15,2013-04-25 09:36:00,
2013-04-25 02:41:00,61.7,16.4,29.77,East,87,1.0,1.0,17,0.00,,,0.00,Wunderground v.1.15,2013-04-25 09:41:00,
2013-04-25 02:46:00,61.3,17.4,29.76,East,95,1.0,3.0,18,0.00,,,0.00,Wunderground v.1.15,2013-04-25 09:46:00,
2013-04-25 02:51:00,61.1,17.2,29.77,ESE,103,2.0,3.0,18,0.00,,,0.00,Wunderground v.1.15,2013-04-25 09:51:00,
2013-04-25 02:56:00,61.2,18.6,29.77,ESE,111,1.0,3.0,19,0.00,,,0.00,Wunderground v.1.15,2013-04-25 09:56:00,
2013-04-25 03:01:00,61.2,18.6,29.76,East,84,0.0,2.0,19,0.00,,,0.00,Wunderground v.1.15,2013-04-25 10:01:00,
2013-04-25 03:06:00,61.2,18.6,29.76,East,81,3.0,5.0,19,0.00,,,0.00,Wunderground v.1.15,2013-04-25 10:06:00,
2013-04-25 03:11:00,61.5,18.8,29.76,ESE,107,2.0,3.0,19,0.00,,,0.00,Wunderground v.1.15,2013-04-25 10:11:00,
2013-04-25 03:16:00,61.4,18.7,29.76,ENE,71,4.0,4.0,19,0.00,,,0.00,Wunderground v.1.15,2013-04-25 10:16:00,
2013-04-25 03:21:00,61.4,18.7,29.76,ESE,115,4.0,8.0,19,0.00,,,0.00,Wunderground v.1.15,2013-04-25 10:21:00,
2013-04-25 03:26:00,61.8,19.0,29.76,ESE,115,0.0,8.0,19,0.00,,,0.00,Wunderground v.1.15,2013-04-25 10:26:00,
2013-04-25 03:31:00,61.7,19.0,29.76,East,92,2.0,2.0,19,0.00,,,0.00,Wunderground v.1.15,2013-04-25 10:31:00,
2013-04-25 03:36:00,62.2,21.7,29.75,East,87,3.0,9.0,21,0.00,,,0.00,Wunderground v.1.15,2013-04-25 10:36:00,
2013-04-25 03:41:00,62.8,23.3,29.76,SE,131,7.0,10.0,22,0.00,,,0.00,Wunderground v.1.15,2013-04-25 10:41:00,
2013-04-25 03:46:00,63.3,23.8,29.76,East,101,9.0,10.0,22,0.00,,,0.00,Wunderground v.1.15,2013-04-25 10:46:00,
2013-04-25 03:51:00,63.3,22.7,29.76,ESE,118,4.0,7.0,21,0.00,,,0.00,Wunderground v.1.15,2013-04-25 10:51:00,
2013-04-25 03:56:00,63.3,23.8,29.76,SSE,155,6.0,8.0,22,0.00,,,0.00,Wunderground v.1.15,2013-04-25 10:56:00,
2013-04-25 04:01:00,63.4,23.8,29.75,SSE,149,7.0,12.0,22,0.00,,,0.00,Wunderground v.1.15,2013-04-25 11:01:00,
2013-04-25 04:06:00,63.7,24.1,29.75,ESE,120,9.0,12.0,22,0.00,,,0.00,Wunderground v.1.15,2013-04-25 11:06:00,
2013-04-25 04:11:00,63.7,25.2,29.75,ESE,122,7.0,13.0,23,0.00,,,0.00,Wunderground v.1.15,2013-04-25 11:11:00,
2013-04-25 04:16:00,63.8,26.3,29.75,SE,124,9.0,15.0,24,0.00,,,0.00,Wunderground v.1.15,2013-04-25 11:16:00,
2013-04-25 04:21:00,63.8,26.3,29.75,SE,129,9.0,14.0,24,0.00,,,0.00,Wunderground v.1.15,2013-04-25 11:21:00,
2013-04-25 04:26:00,63.7,26.2,29.75,SE,146,6.0,15.0,24,0.00,,,0.00,Wunderground v.1.15,2013-04-25 11:26:00,
2013-04-25 04:31:00,63.6,26.1,29.75,SE,129,7.0,10.0,24,0.00,,,0.00,Wunderground v.1.15,2013-04-25 11:31:00,
2013-04-25 04:36:00,63.5,27.0,29.75,SE,134,6.0,16.0,25,0.00,,,0.00,Wunderground v.1.15,2013-04-25 11:36:00,
2013-04-25 04:41:00,63.4,26.9,29.75,SE,128,9.0,9.0,25,0.00,,,0.00,Wunderground v.1.15,2013-04-25 11:41:00,
2013-04-25 04:46:00,63.3,28.7,29.75,ESE,120,5.0,14.0,27,0.00,,,0.00,Wunderground v.1.15,2013-04-25 11:46:00,
2013-04-25 04:51:00,63.2,28.6,29.75,SE,127,6.0,13.0,27,0.00,,,0.00,Wunderground v.1.15,2013-04-25 11:51:00,
2013-04-25 04:56:00,63.1,28.5,29.75,SE,136,9.0,13.0,27,0.00,,,0.00,Wunderground v.1.15,2013-04-25 11:56:00,
2013-04-25 05:01:00,63.1,28.5,29.75,SSE,157,12.0,13.0,27,0.00,,,0.00,Wunderground v.1.15,2013-04-25 12:01:00,
2013-04-25 05:06:00,63.2,27.7,29.75,SE,140,6.0,14.0,26,0.00,,,0.00,Wunderground v.1.15,2013-04-25 12:06:00,
2013-04-25 05:11:00,63.4,27.9,29.75,SE,132,10.0,12.0,26,0.00,,,0.00,Wunderground v.1.15,2013-04-25 12:11:00,
2013-04-25 05:16:00,63.4,26.9,29.75,ESE,113,8.0,15.0,25,0.00,,,0.00,Wunderground v.1.15,2013-04-25 12:16:00,
2013-04-25 05:21:00,63.4,26.9,29.75,SE,143,8.0,9.0,25,0.00,,,0.00,Wunderground v.1.15,2013-04-25 12:21:00,
2013-04-25 05:26:00,63.3,26.8,29.75,SE,131,8.0,11.0,25,0.00,,,0.00,Wunderground v.1.15,2013-04-25 12:26:00,
2013-04-25 05:31:00,63.3,26.8,29.76,SE,132,8.0,11.0,25,0.00,,,0.00,Wunderground v.1.15,2013-04-25 12:31:00,
2013-04-25 05:36:00,63.4,25.9,29.76,SSE,154,8.0,13.0,24,0.00,,,0.00,Wunderground v.1.15,2013-04-25 12:36:00,
2013-04-25 05:41:00,63.4,25.9,29.76,SE,141,6.0,12.0,24,0.00,,,0.00,Wunderground v.1.15,2013-04-25 12:41:00,
2013-04-25 05:46:00,63.4,25.9,29.76,SE,143,6.0,13.0,24,0.00,,,0.00,Wunderground v.1.15,2013-04-25 12:46:00,
2013-04-25 05:51:00,63.4,25.9,29.76,SSE,150,6.0,13.0,24,0.00,,,0.00,Wunderground v.1.15,2013-04-25 12:51:00,
2013-04-25 05:56:00,63.3,25.9,29.76,SE,143,6.0,13.0,24,0.00,,,0.00,Wunderground v.1.15,2013-04-25 12:56:00,
2013-04-25 06:01:00,63.5,26.0,29.76,ESE,122,10.0,13.0,24,0.00,,,0.00,Wunderground v.1.15,2013-04-25 13:01:00,
2013-04-25 06:06:00,63.6,26.1,29.76,SE,131,11.0,14.0,24,0.00,,,0.00,Wunderground v.1.15,2013-04-25 13:06:00,
2013-04-25 06:11:00,63.7,26.2,29.76,SE,131,10.0,11.0,24,0.00,,,0.00,Wunderground v.1.15,2013-04-25 13:11:00,
2013-04-25 06:16:00,63.6,26.1,29.77,ESE,113,10.0,12.0,24,0.00,,,0.00,Wunderground v.1.15,2013-04-25 13:16:00,
2013-04-25 06:21:00,63.6,26.1,29.77,SE,136,8.0,11.0,24,0.00,,,0.00,Wunderground v.1.15,2013-04-25 13:21:00,
2013-04-25 06:26:00,63.6,26.1,29.77,SE,131,12.0,13.0,24,0.00,,,0.00,Wunderground v.1.15,2013-04-25 13:26:00,
2013-04-25 06:31:00,63.8,26.3,29.77,ESE,110,4.0,11.0,24,0.00,,,0.00,Wunderground v.1.15,2013-04-25 13:31:00,
2013-04-25 06:36:00,63.7,26.2,29.77,SE,127,7.0,12.0,24,0.00,,,0.00,Wunderground v.1.15,2013-04-25 13:36:00,
2013-04-25 06:41:00,63.8,26.3,29.77,ESE,123,6.0,14.0,24,0.00,,,0.00,Wunderground v.1.15,2013-04-25 13:41:00,
2013-04-25 06:46:00,63.8,26.3,29.77,SE,128,8.0,17.0,24,0.00,,,0.00,Wunderground v.1.15,2013-04-25 13:46:00,
2013-04-25 06:51:00,63.7,26.2,29.77,SE,124,8.0,11.0,24,0.00,,,0.00,Wunderground v.1.15,2013-04-25 13:51:00,
2013-04-25 06:56:00,63.6,25.1,29.77,SE,131,8.0,14.0,23,0.00,,,0.00,Wunderground v.1.15,2013-04-25 13:56:00,
2013-04-25 07:01:00,63.5,25.0,29.77,SE,141,10.0,13.0,23,0.00,,,0.00,Wunderground v.1.15,2013-04-25 14:01:00,
2013-04-25 07:06:00,63.5,26.0,29.77,ESE,117,8.0,13.0,24,0.00,,,0.00,Wunderground v.1.15,2013-04-25 14:06:00,
2013-04-25 07:11:00,63.5,26.0,29.77,SE,129,8.0,13.0,24,0.00,,,0.00,Wunderground v.1.15,2013-04-25 14:11:00,
2013-04-25 07:16:00,63.6,26.1,29.77,ESE,115,8.0,13.0,24,0.00,,,0.00,Wunderground v.1.15,2013-04-25 14:16:00,
2013-04-25 07:21:00,63.6,26.1,29.77,SE,132,8.0,12.0,24,0.00,,,0.00,Wunderground v.1.15,2013-04-25 14:21:00,
2013-04-25 07:26:00,63.9,26.4,29.77,ESE,122,8.0,13.0,24,0.00,,,0.00,Wunderground v.1.15,2013-04-25 14:26:00,
2013-04-25 07:31:00,64.1,26.5,29.76,SE,134,14.0,14.0,24,0.00,,,0.00,Wunderground v.1.15,2013-04-25 14:31:00,
2013-04-25 07:36:00,64.3,26.7,29.76,SSE,152,7.0,15.0,24,0.00,,,0.00,Wunderground v.1.15,2013-04-25 14:36:00,
2013-04-25 07:41:00,64.9,27.2,29.77,SE,132,7.0,11.0,24,0.00,,,0.00,Wunderground v.1.15,2013-04-25 14:41:00,
2013-04-25 07:46:00,65.7,26.9,29.77,SE,136,10.0,14.0,23,0.00,,,0.00,Wunderground v.1.15,2013-04-25 14:46:00,
2013-04-25 07:51:00,66.3,27.4,29.77,SSE,165,14.0,16.0,23,0.00,,,0.00,Wunderground v.1.15,2013-04-25 14:51:00,
2013-04-25 07:56:00,66.3,27.4,29.77,SSE,148,11.0,18.0,23,0.00,,,0.00,Wunderground v.1.15,2013-04-25 14:56:00,
2013-04-25 08:01:00,66.3,27.4,29.77,SSE,152,14.0,18.0,23,0.00,,,0.00,Wunderground v.1.15,2013-04-25 15:01:00,
2013-04-25 08:06:00,67.2,27.0,29.77,SSE,166,14.0,18.0,22,0.00,,,0.00,Wunderground v.1.15,2013-04-25 15:06:00,
2013-04-25 08:11:00,67.5,27.3,29.76,SSE,158,13.0,18.0,22,0.00,,,0.00,Wunderground v.1.15,2013-04-25 15:11:00,
2013-04-25 08:16:00,67.7,26.3,29.76,SSE,165,19.0,22.0,21,0.00,,,0.00,Wunderground v.1.15,2013-04-25 15:16:00,
2013-04-25 08:21:00,68.2,26.7,29.76,SSE,155,15.0,18.0,21,0.00,,,0.00,Wunderground v.1.15,2013-04-25 15:21:00,
2013-04-25 08:26:00,68.5,27.0,29.76,SSE,164,14.0,21.0,21,0.00,,,0.00,Wunderground v.1.15,2013-04-25 15:26:00,
2013-04-25 08:31:00,68.7,26.0,29.76,SSE,149,13.0,20.0,20,0.00,,,0.00,Wunderground v.1.15,2013-04-25 15:31:00,
2013-04-25 08:36:00,69.0,26.2,29.76,SSE,147,15.0,20.0,20,0.00,,,0.00,Wunderground v.1.15,2013-04-25 15:36:00,
2013-04-25 08:41:00,69.1,26.3,29.77,South,172,12.0,16.0,20,0.00,,,0.00,Wunderground v.1.15,2013-04-25 15:41:00,
2013-04-25 08:46:00,69.9,25.7,29.77,South,169,15.0,17.0,19,0.00,,,0.00,Wunderground v.1.15,2013-04-25 15:46:00,
2013-04-25 08:51:00,70.0,24.5,29.77,South,173,16.0,22.0,18,0.00,,,0.00,Wunderground v.1.15,2013-04-25 15:51:00,
2013-04-25 08:56:00,70.3,24.8,29.78,SSW,204,12.0,22.0,18,0.00,,,0.00,Wunderground v.1.15,2013-04-25 15:56:00,
2013-04-25 09:01:00,70.7,25.1,29.77,South,186,10.0,15.0,18,0.00,,,0.00,Wunderground v.1.15,2013-04-25 16:01:00,
2013-04-25 09:06:00,70.8,23.8,29.78,South,169,8.0,17.0,17,0.00,,,0.00,Wunderground v.1.15,2013-04-25 16:06:00,
2013-04-25 09:11:00,70.9,23.9,29.78,South,172,12.0,14.0,17,0.00,,,0.00,Wunderground v.1.15,2013-04-25 16:11:00,
2013-04-25 09:16:00,71.5,24.4,29.77,SSE,160,9.0,18.0,17,0.00,,,0.00,Wunderground v.1.15,2013-04-25 16:16:00,
2013-04-25 09:21:00,71.6,23.0,29.77,South,170,11.0,19.0,16,0.00,,,0.00,Wunderground v.1.15,2013-04-25 16:21:00,
2013-04-25 09:26:00,71.7,23.1,29.78,SSE,160,8.0,19.0,16,0.00,,,0.00,Wunderground v.1.15,2013-04-25 16:26:00,
2013-04-25 09:31:00,71.8,23.2,29.77,SE,137,10.0,13.0,16,0.00,,,0.00,Wunderground v.1.15,2013-04-25 16:31:00,
2013-04-25 09:36:00,72.3,23.6,29.77,ESE,117,12.0,17.0,16,0.00,,,0.00,Wunderground v.1.15,2013-04-25 16:36:00,
2013-04-25 09:41:00,72.4,23.6,29.77,South,169,18.0,18.0,16,0.00,,,0.00,Wunderground v.1.15,2013-04-25 16:41:00,
2013-04-25 09:46:00,72.4,23.6,29.77,South,172,12.0,18.0,16,0.00,,,0.00,Wunderground v.1.15,2013-04-25 16:46:00,
2013-04-25 09:51:00,73.0,24.1,29.77,South,177,9.0,17.0,16,0.00,,,0.00,Wunderground v.1.15,2013-04-25 16:51:00,
2013-04-25 09:56:00,72.9,24.0,29.77,SE,143,14.0,18.0,16,0.00,,,0.00,Wunderground v.1.15,2013-04-25 16:56:00,
2013-04-25 10:01:00,73.5,24.5,29.77,South,186,13.0,17.0,16,0.00,,,0.00,Wunderground v.1.15,2013-04-25 17:01:00,
2013-04-25 10:06:00,74.3,22.0,29.76,South,172,11.0,18.0,14,0.00,,,0.00,Wunderground v.1.15,2013-04-25 17:06:00,
2013-04-25 10:11:00,74.6,22.2,29.76,South,186,18.0,24.0,14,0.00,,,0.00,Wunderground v.1.15,2013-04-25 17:11:00,
2013-04-25 10:16:00,74.2,23.5,29.76,SSE,160,17.0,24.0,15,0.00,,,0.00,Wunderground v.1.15,2013-04-25 17:16:00,
2013-04-25 10:21:00,74.7,22.3,29.76,SSE,166,16.0,16.0,14,0.00,,,0.00,Wunderground v.1.15,2013-04-25 17:21:00,
2013-04-25 10:26:00,75.2,20.9,29.76,SSW,200,16.0,25.0,13,0.00,,,0.00,Wunderground v.1.15,2013-04-25 17:26:00,
2013-04-25 10:31:00,75.0,20.8,29.76,South,172,18.0,22.0,13,0.00,,,0.00,Wunderground v.1.15,2013-04-25 17:31:00,
2013-04-25 10:36:00,75.2,20.9,29.76,SSE,150,13.0,24.0,13,0.00,,,0.00,Wunderground v.1.15,2013-04-25 17:36:00,
2013-04-25 10:41:00,75.5,21.2,29.76,SSW,208,20.0,22.0,13,0.00,,,0.00,Wunderground v.1.15,2013-04-25 17:41:00,
2013-04-25 10:46:00,76.1,19.8,29.75,South,179,26.0,26.0,12,0.00,,,0.00,Wunderground v.1.15,2013-04-25 17:46:00,
2013-04-25 10:51:00,76.1,19.8,29.75,SSW,198,18.0,21.0,12,0.00,,,0.00,Wunderground v.1.15,2013-04-25 17:51:00,
2013-04-25 10:56:00,76.3,19.9,29.75,SSW,204,18.0,25.0,12,0.00,,,0.00,Wunderground v.1.15,2013-04-25 17:56:00,
2013-04-25 11:01:00,76.6,20.1,29.75,SSW,197,12.0,21.0,12,0.00,,,0.00,Wunderground v.1.15,2013-04-25 18:01:00,
2013-04-25 11:06:00,76.5,20.1,29.75,SW,228,21.0,25.0,12,0.00,,,0.00,Wunderground v.1.15,2013-04-25 18:06:00,
2013-04-25 11:11:00,76.1,19.8,29.75,South,184,14.0,22.0,12,0.00,,,0.00,Wunderground v.1.15,2013-04-25 18:11:00,
2013-04-25 11:16:00,76.4,20.0,29.75,South,180,9.0,25.0,12,0.00,,,0.00,Wunderground v.1.15,2013-04-25 18:16:00,
2013-04-25 11:21:00,77.2,18.6,29.75,SSW,205,16.0,23.0,11,0.00,,,0.00,Wunderground v.1.15,2013-04-25 18:21:00,
2013-04-25 11:26:00,77.4,18.7,29.75,South,187,14.0,23.0,11,0.00,,,0.00,Wunderground v.1.15,2013-04-25 18:26:00,
2013-04-25 11:31:00,77.4,16.5,29.74,SW,217,20.0,20.0,10,0.00,,,0.00,Wunderground v.1.15,2013-04-25 18:31:00,
2013-04-25 11:36:00,78.3,17.2,29.74,SW,229,13.0,21.0,10,0.00,,,0.00,Wunderground v.1.15,2013-04-25 18:36:00,
2013-04-25 11:41:00,78.0,17.0,29.74,South,174,12.0,19.0,10,0.00,,,0.00,Wunderground v.1.15,2013-04-25 18:41:00,
2013-04-25 11:46:00,78.4,14.8,29.74,SSW,212,18.0,21.0,9,0.00,,,0.00,Wunderground v.1.15,2013-04-25 18:46:00,
2013-04-25 11:51:00,78.1,14.6,29.73,South,181,7.0,14.0,9,0.00,,,0.00,Wunderground v.1.15,2013-04-25 18:51:00,
2013-04-25 11:56:00,78.5,14.9,29.73,South,187,16.0,23.0,9,0.00,,,0.00,Wunderground v.1.15,2013-04-25 18:56:00,
2013-04-25 12:01:00,78.5,14.9,29.73,South,188,16.0,21.0,9,0.00,,,0.00,Wunderground v.1.15,2013-04-25 19:01:00,
2013-04-25 12:06:00,78.8,15.1,29.73,SW,236,12.0,21.0,9,0.00,,,0.00,Wunderground v.1.15,2013-04-25 19:06:00,
2013-04-25 12:11:00,78.6,15.0,29.73,South,170,26.0,26.0,9,0.00,,,0.00,Wunderground v.1.15,2013-04-25 19:11:00,
2013-04-25 12:16:00,79.3,12.8,29.73,South,170,12.0,26.0,8,0.00,,,0.00,Wunderground v.1.15,2013-04-25 19:16:00,
2013-04-25 12:21:00,79.0,12.6,29.73,SW,219,17.0,22.0,8,0.00,,,0.00,Wunderground v.1.15,2013-04-25 19:21:00,
2013-04-25 12:26:00,78.8,9.5,29.73,SW,224,18.0,27.0,7,0.00,,,0.00,Wunderground v.1.15,2013-04-25 19:26:00,
2013-04-25 12:31:00,78.7,12.4,29.73,SW,226,15.0,21.0,8,0.00,,,0.00,Wunderground v.1.15,2013-04-25 19:31:00,
2013-04-25 12:36:00,79.1,9.7,29.73,SW,229,20.0,25.0,7,0.00,,,0.00,Wunderground v.1.15,2013-04-25 19:36:00,
2013-04-25 12:41:00,78.9,6.1,29.73,WSW,246,20.0,25.0,6,0.00,,,0.00,Wunderground v.1.15,2013-04-25 19:41:00,
2013-04-25 12:46:00,78.7,6.0,29.73,WSW,240,18.0,25.0,6,0.00,,,0.00,Wunderground v.1.15,2013-04-25 19:46:00,
2013-04-25 12:51:00,78.6,5.9,29.73,SW,227,17.0,20.0,6,0.00,,,0.00,Wunderground v.1.15,2013-04-25 19:51:00,
2013-04-25 12:56:00,78.7,9.4,29.73,SSW,200,17.0,21.0,7,0.00,,,0.00,Wunderground v.1.15,2013-04-25 19:56:00,
2013-04-25 13:01:00,78.8,9.5,29.73,SSW,210,20.0,21.0,7,0.00,,,0.00,Wunderground v.1.15,2013-04-25 20:01:00,
2013-04-25 13:06:00,78.8,2.1,29.73,WSW,258,15.0,24.0,5,0.00,,,0.00,Wunderground v.1.15,2013-04-25 20:06:00,
2013-04-25 13:11:00,79.2,2.4,29.73,WSW,257,20.0,25.0,5,0.00,,,0.00,Wunderground v.1.15,2013-04-25 20:11:00,
2013-04-25 13:16:00,79.0,2.2,29.73,WSW,252,17.0,30.0,5,0.00,,,0.00,Wunderground v.1.15,2013-04-25 20:16:00,
2013-04-25 13:21:00,79.4,2.5,29.73,SW,227,19.0,26.0,5,0.00,,,0.00,Wunderground v.1.15,2013-04-25 20:21:00,
2013-04-25 13:26:00,79.6,2.6,29.73,WSW,238,20.0,26.0,5,0.00,,,0.00,Wunderground v.1.15,2013-04-25 20:26:00,
2013-04-25 13:31:00,79.4,2.5,29.72,WSW,238,14.0,24.0,5,0.00,,,0.00,Wunderground v.1.15,2013-04-25 20:31:00,
2013-04-25 13:36:00,79.4,2.5,29.72,WSW,248,16.0,26.0,5,0.00,,,0.00,Wunderground v.1.15,2013-04-25 20:36:00,
2013-04-25 13:41:00,79.3,2.4,29.73,SW,228,15.0,24.0,5,0.00,,,0.00,Wunderground v.1.15,2013-04-25 20:41:00,
2013-04-25 13:46:00,79.4,2.5,29.73,SW,224,11.0,24.0,5,0.00,,,0.00,Wunderground v.1.15,2013-04-25 20:46:00,
2013-04-25 13:51:00,79.7,6.7,29.72,SW,217,12.0,19.0,6,0.00,,,0.00,Wunderground v.1.15,2013-04-25 20:51:00,
2013-04-25 13:56:00,79.6,6.6,29.72,SW,221,26.0,29.0,6,0.00,,,0.00,Wunderground v.1.15,2013-04-25 20:56:00,
2013-04-25 14:01:00,79.2,6.3,29.72,SSW,203,17.0,25.0,6,0.00,,,0.00,Wunderground v.1.15,2013-04-25 21:01:00,
2013-04-25 14:06:00,79.2,9.8,29.72,SW,228,22.0,25.0,7,0.00,,,0.00,Wunderground v.1.15,2013-04-25 21:06:00,
2013-04-25 14:11:00,79.2,9.8,29.72,SW,224,22.0,23.0,7,0.00,,,0.00,Wunderground v.1.15,2013-04-25 21:11:00,
2013-04-25 14:16:00,78.4,9.2,29.71,WSW,238,11.0,28.0,7,0.00,,,0.00,Wunderground v.1.15,2013-04-25 21:16:00,
2013-04-25 14:21:00,78.7,9.4,29.72,SSW,212,19.0,20.0,7,0.00,,,0.00,Wunderground v.1.15,2013-04-25 21:21:00,
2013-04-25 14:26:00,79.0,9.6,29.71,SSW,208,8.0,24.0,7,0.00,,,0.00,Wunderground v.1.15,2013-04-25 21:26:00,
2013-04-25 14:31:00,79.0,9.6,29.71,SW,219,24.0,29.0,7,0.00,,,0.00,Wunderground v.1.15,2013-04-25 21:31:00,
2013-04-25 14:36:00,78.4,12.2,29.71,SW,226,13.0,29.0,8,0.00,,,0.00,Wunderground v.1.15,2013-04-25 21:36:00,
2013-04-25 14:42:00,78.1,11.9,29.71,WSW,238,19.0,24.0,8,0.00,,,0.00,Wunderground v.1.15,2013-04-25 21:42:00,
2013-04-25 14:46:00,78.1,11.9,29.71,SW,234,15.0,30.0,8,0.00,,,0.00,Wunderground v.1.15,2013-04-25 21:46:00,
2013-04-25 14:51:00,77.9,14.5,29.71,SW,226,16.0,23.0,9,0.00,,,0.00,Wunderground v.1.15,2013-04-25 21:51:00,
2013-04-25 14:56:00,78.1,14.6,29.71,WSW,250,21.0,26.0,9,0.00,,,0.00,Wunderground v.1.15,2013-04-25 21:56:00,
2013-04-25 15:01:00,77.5,14.2,29.71,SW,225,18.0,22.0,9,0.00,,,0.00,Wunderground v.1.15,2013-04-25 22:01:00,
2013-04-25 15:06:00,77.6,16.7,29.71,WSW,240,16.0,24.0,10,0.00,,,0.00,Wunderground v.1.15,2013-04-25 22:06:00,
2013-04-25 15:11:00,77.6,16.7,29.71,SW,235,17.0,17.0,10,0.00,,,0.00,Wunderground v.1.15,2013-04-25 22:11:00,
2013-04-25 15:16:00,77.6,16.7,29.71,SW,226,12.0,23.0,10,0.00,,,0.00,Wunderground v.1.15,2013-04-25 22:16:00,
2013-04-25 15:21:00,78.2,14.7,29.70,SW,225,20.0,27.0,9,0.00,,,0.00,Wunderground v.1.15,2013-04-25 22:21:00,
2013-04-25 15:27:00,78.2,14.7,29.70,SW,225,13.0,27.0,9,0.00,,,0.00,Wunderground v.1.15,2013-04-25 22:27:00,
2013-04-25 15:32:00,78.1,11.9,29.70,WSW,246,20.0,23.0,8,0.00,,,0.00,Wunderground v.1.15,2013-04-25 22:32:00,
2013-04-25 15:37:00,77.8,11.7,29.70,SW,231,12.0,27.0,8,0.00,,,0.00,Wunderground v.1.15,2013-04-25 22:37:00,
2013-04-25 15:42:00,78.0,14.5,29.70,WSW,252,14.0,17.0,9,0.00,,,0.00,Wunderground v.1.15,2013-04-25 22:42:00,
2013-04-25 15:47:00,77.8,14.4,29.70,WSW,256,15.0,30.0,9,0.00,,,0.00,Wunderground v.1.15,2013-04-25 22:47:00,
2013-04-25 15:52:00,77.6,14.2,29.70,WSW,239,13.0,23.0,9,0.00,,,0.00,Wunderground v.1.15,2013-04-25 22:52:00,
2013-04-25 15:57:00,77.5,14.2,29.70,WSW,246,12.0,23.0,9,0.00,,,0.00,Wunderground v.1.15,2013-04-25 22:57:00,
2013-04-25 16:02:00,77.4,14.1,29.70,SW,224,22.0,24.0,9,0.00,,,0.00,Wunderground v.1.15,2013-04-25 23:02:00,
2013-04-25 16:07:00,77.5,14.2,29.70,SW,226,19.0,27.0,9,0.00,,,0.00,Wunderground v.1.15,2013-04-25 23:07:00,
2013-04-25 16:12:00,77.1,13.9,29.70,SW,224,17.0,21.0,9,0.00,,,0.00,Wunderground v.1.15,2013-04-25 23:12:00,
2013-04-25 16:17:00,77.5,14.2,29.70,West,259,20.0,24.0,9,0.00,,,0.00,Wunderground v.1.15,2013-04-25 23:17:00,
2013-04-25 16:22:00,77.4,14.1,29.71,West,271,12.0,18.0,9,0.00,,,0.00,Wunderground v.1.15,2013-04-25 23:22:00,
2013-04-25 16:27:00,76.9,13.7,29.71,SW,236,13.0,22.0,9,0.00,,,0.00,Wunderground v.1.15,2013-04-25 23:27:00,
2013-04-25 16:32:00,77.2,16.4,29.71,SW,218,14.0,22.0,10,0.00,,,0.00,Wunderground v.1.15,2013-04-25 23:32:00,
2013-04-25 16:37:00,77.1,16.3,29.71,SW,222,18.0,25.0,10,0.00,,,0.00,Wunderground v.1.15,2013-04-25 23:37:00,
2013-04-25 16:42:00,76.8,18.3,29.71,WSW,248,14.0,22.0,11,0.00,,,0.00,Wunderground v.1.15,2013-04-25 23:42:00,
2013-04-25 16:47:00,76.7,16.0,29.71,West,263,17.0,23.0,10,0.00,,,0.00,Wunderground v.1.15,2013-04-25 23:47:00,
2013-04-25 16:52:00,76.7,16.0,29.71,SW,228,17.0,22.0,10,0.00,,,0.00,Wunderground v.1.15,2013-04-25 23:52:00,
2013-04-25 16:57:00,76.0,15.4,29.71,WSW,238,11.0,26.0,10,0.00,,,0.00,Wunderground v.1.15,2013-04-25 23:57:00,
2013-04-25 17:02:00,76.1,13.1,29.71,WSW,245,15.0,20.0,9,0.00,,,0.00,Wunderground v.1.15,2013-04-26 00:02:00,
2013-04-25 17:07:00,75.9,10.3,29.71,SW,233,14.0,26.0,8,0.00,,,0.00,Wunderground v.1.15,2013-04-26 00:07:00,
2013-04-25 17:12:00,75.7,12.8,29.71,SW,229,21.0,27.0,9,0.00,,,0.00,Wunderground v.1.15,2013-04-26 00:12:00,
2013-04-25 17:17:00,75.3,14.9,29.71,WSW,238,17.0,27.0,10,0.00,,,0.00,Wunderground v.1.15,2013-04-26 00:17:00,
2013-04-25 17:22:00,75.2,17.0,29.72,WSW,253,15.0,19.0,11,0.00,,,0.00,Wunderground v.1.15,2013-04-26 00:22:00,
2013-04-25 17:27:00,74.9,16.8,29.72,WSW,257,16.0,20.0,11,0.00,,,0.00,Wunderground v.1.15,2013-04-26 00:27:00,
2013-04-25 17:32:00,74.7,16.6,29.72,WSW,253,7.0,19.0,11,0.00,,,0.00,Wunderground v.1.15,2013-04-26 00:32:00,
2013-04-25 17:37:00,74.5,18.5,29.72,West,280,11.0,22.0,12,0.00,,,0.00,Wunderground v.1.15,2013-04-26 00:37:00,
2013-04-25 17:42:00,74.0,18.1,29.72,WSW,250,13.0,22.0,12,0.00,,,0.00,Wunderground v.1.15,2013-04-26 00:42:00,
2013-04-25 17:47:00,73.5,17.7,29.72,West,264,9.0,22.0,12,0.00,,,0.00,Wunderground v.1.15,2013-04-26 00:47:00,
2013-04-25 17:52:00,73.5,17.7,29.72,West,273,13.0,18.0,12,0.00,,,0.00,Wunderground v.1.15,2013-04-26 00:52:00,
2013-04-25 17:57:00,73.2,15.5,29.72,WSW,245,14.0,21.0,11,0.00,,,0.00,Wunderground v.1.15,2013-04-26 00:57:00,
2013-04-25 18:02:00,73.2,15.5,29.73,WSW,256,13.0,14.0,11,0.00,,,0.00,Wunderground v.1.15,2013-04-26 01:02:00,
2013-04-25 18:07:00,72.7,15.1,29.73,WSW,245,10.0,25.0,11,0.00,,,0.00,Wunderground v.1.15,2013-04-26 01:07:00,
2013-04-25 18:12:00,72.6,15.0,29.73,WSW,252,12.0,20.0,11,0.00,,,0.00,Wunderground v.1.15,2013-04-26 01:12:00,
2013-04-25 18:17:00,72.2,14.7,29.73,NW,314,9.0,20.0,11,0.00,,,0.00,Wunderground v.1.15,2013-04-26 01:17:00,
2013-04-25 18:22:00,71.8,14.4,29.73,WNW,293,9.0,18.0,11,0.00,,,0.00,Wunderground v.1.15,2013-04-26 01:22:00,
2013-04-25 18:27:00,71.4,14.1,29.74,WSW,255,9.0,18.0,11,0.00,,,0.00,Wunderground v.1.15,2013-04-26 01:27:00,
2013-04-25 18:32:00,71.0,13.8,29.74,WSW,238,11.0,17.0,11,0.00,,,0.00,Wunderground v.1.15,2013-04-26 01:32:00,
2013-04-25 18:37:00,70.6,13.5,29.74,WSW,248,12.0,18.0,11,0.00,,,0.00,Wunderground v.1.15,2013-04-26 01:37:00,
2013-04-25 18:42:00,70.1,13.1,29.74,West,259,11.0,16.0,11,0.00,,,0.00,Wunderground v.1.15,2013-04-26 01:42:00,
2013-04-25 18:47:00,69.6,14.7,29.74,West,260,9.0,16.0,12,0.00,,,0.00,Wunderground v.1.15,2013-04-26 01:47:00,
2013-04-25 18:52:00,69.1,14.3,29.74,SW,235,13.0,13.0,12,0.00,,,0.00,Wunderground v.1.15,2013-04-26 01:52:00,
2013-04-25 18:57:00,68.6,13.9,29.75,WSW,256,7.0,14.0,12,0.00,,,0.00,Wunderground v.1.15,2013-04-26 01:57:00,
2013-04-25 19:02:00,68.2,13.6,29.75,West,259,6.0,15.0,12,0.00,,,0.00,Wunderground v.1.15,2013-04-26 02:02:00,
2013-04-25 19:07:00,67.9,13.3,29.75,WNW,284,9.0,15.0,12,0.00,,,0.00,Wunderground v.1.15,2013-04-26 02:07:00,
2013-04-25 19:12:00,67.5,14.9,29.76,SW,235,7.0,10.0,13,0.00,,,0.00,Wunderground v.1.15,2013-04-26 02:12:00,
2013-04-25 19:17:00,67.0,14.5,29.76,West,259,6.0,13.0,13,0.00,,,0.00,Wunderground v.1.15,2013-04-26 02:17:00,
2013-04-25 19:22:00,66.5,14.1,29.76,West,266,4.0,10.0,13,0.00,,,0.00,Wunderground v.1.15,2013-04-26 02:22:00,
2013-04-25 19:27:00,65.9,13.6,29.77,WSW,245,8.0,10.0,13,0.00,,,0.00,Wunderground v.1.15,2013-04-26 02:27:00,
2013-04-25 19:32:00,65.3,13.1,29.77,WNW,300,3.0,5.0,13,0.00,,,0.00,Wunderground v.1.15,2013-04-26 02:32:00,
2013-04-25 19:37:00,64.2,15.5,29.78,WNW,293,3.0,5.0,15,0.00,,,0.00,Wunderground v.1.15,2013-04-26 02:37:00,
2013-04-25 19:42:00,63.6,16.5,29.78,WNW,291,5.0,8.0,16,0.00,,,0.00,Wunderground v.1.15,2013-04-26 02:42:00,
2013-04-25 19:47:00,63.4,16.4,29.79,WNW,296,6.0,10.0,16,0.00,,,0.00,Wunderground v.1.15,2013-04-26 02:47:00,
2013-04-25 19:52:00,63.4,17.8,29.79,WNW,298,3.0,10.0,17,0.00,,,0.00,Wunderground v.1.15,2013-04-26 02:52:00,
2013-04-25 19:57:00,63.2,17.6,29.79,West,271,5.0,10.0,17,0.00,,,0.00,Wunderground v.1.15,2013-04-26 02:57:00,
2013-04-25 20:02:00,62.7,18.5,29.79,West,281,3.0,7.0,18,0.00,,,0.00,Wunderground v.1.15,2013-04-26 03:02:00,
2013-04-25 20:07:00,62.7,18.5,29.80,WNW,294,5.0,11.0,18,0.00,,,0.00,Wunderground v.1.15,2013-04-26 03:07:00,
2013-04-25 20:12:00,62.5,19.6,29.80,WNW,283,5.0,8.0,19,0.00,,,0.00,Wunderground v.1.15,2013-04-26 03:12:00,
2013-04-25 20:17:00,62.4,19.5,29.80,WNW,284,4.0,9.0,19,0.00,,,0.00,Wunderground v.1.15,2013-04-26 03:17:00,
2013-04-25 20:22:00,62.5,19.6,29.81,WNW,283,9.0,12.0,19,0.00,,,0.00,Wunderground v.1.15,2013-04-26 03:22:00,
2013-04-25 20:27:00,62.2,21.7,29.81,NW,311,7.0,12.0,21,0.00,,,0.00,Wunderground v.1.15,2013-04-26 03:27:00,
2013-04-25 20:32:00,62.0,23.7,29.81,WNW,285,6.0,11.0,23,0.00,,,0.00,Wunderground v.1.15,2013-04-26 03:32:00,
2013-04-25 20:37:00,61.7,24.5,29.82,West,276,4.0,12.0,24,0.00,,,0.00,Wunderground v.1.15,2013-04-26 03:37:00,
2013-04-25 20:42:00,61.6,24.4,29.82,West,280,6.0,12.0,24,0.00,,,0.00,Wunderground v.1.15,2013-04-26 03:42:00,
2013-04-25 20:47:00,61.4,25.2,29.82,West,266,8.0,13.0,25,0.00,,,0.00,Wunderground v.1.15,2013-04-26 03:47:00,
2013-04-25 20:52:00,61.3,25.1,29.82,WNW,297,7.0,10.0,25,0.00,,,0.00,Wunderground v.1.15,2013-04-26 03:52:00,
2013-04-25 20:57:00,61.0,25.8,29.83,WNW,287,7.0,11.0,26,0.00,,,0.00,Wunderground v.1.15,2013-04-26 03:57:00,
2013-04-25 21:01:00,60.9,25.7,29.83,WNW,289,6.0,9.0,26,0.00,,,0.00,Wunderground v.1.15,2013-04-26 04:01:00,
2013-04-25 21:06:00,60.5,25.4,29.83,WNW,294,4.0,10.0,26,0.00,,,0.00,Wunderground v.1.15,2013-04-26 04:06:00,
2013-04-25 21:11:00,60.1,25.1,29.83,WNW,283,3.0,6.0,26,0.00,,,0.00,Wunderground v.1.15,2013-04-26 04:11:00,
2013-04-25 21:16:00,59.8,25.7,29.84,WNW,302,5.0,7.0,27,0.00,,,0.00,Wunderground v.1.15,2013-04-26 04:16:00,
2013-04-25 21:21:00,59.6,25.5,29.84,WNW,298,4.0,6.0,27,0.00,,,0.00,Wunderground v.1.15,2013-04-26 04:21:00,
2013-04-25 21:26:00,59.5,25.5,29.85,WNW,290,6.0,8.0,27,0.00,,,0.00,Wunderground v.1.15,2013-04-26 04:26:00,
2013-04-25 21:31:00,59.3,25.3,29.85,NW,311,2.0,4.0,27,0.00,,,0.00,Wunderground v.1.15,2013-04-26 04:31:00,
2013-04-25 21:36:00,58.9,24.9,29.85,West,278,2.0,5.0,27,0.00,,,0.00,Wunderground v.1.15,2013-04-26 04:36:00,
2013-04-25 21:41:00,58.6,24.7,29.86,West,277,2.0,3.0,27,0.00,,,0.00,Wunderground v.1.15,2013-04-26 04:41:00,
2013-04-25 21:46:00,58.4,24.5,29.86,WNW,284,2.0,5.0,27,0.00,,,0.00,Wunderground v.1.15,2013-04-26 04:46:00,
2013-04-25 21:51:00,58.2,24.3,29.86,WNW,295,2.0,4.0,27,0.00,,,0.00,Wunderground v.1.15,2013-04-26 04:51:00,
2013-04-25 21:56:00,57.8,24.0,29.86,WNW,302,4.0,5.0,27,0.00,,,0.00,Wunderground v.1.15,2013-04-26 04:56:00,
2013-04-25 22:01:00,57.7,23.9,29.86,WNW,298,3.0,5.0,27,0.00,,,0.00,Wunderground v.1.15,2013-04-26 05:01:00,
2013-04-25 22:06:00,57.3,23.6,29.86,NW,322,5.0,7.0,27,0.00,,,0.00,Wunderground v.1.15,2013-04-26 05:06:00,
2013-04-25 22:11:00,56.9,23.2,29.86,NW,319,3.0,6.0,27,0.00,,,0.00,Wunderground v.1.15,2013-04-26 05:11:00,
2013-04-25 22:16:00,56.5,22.9,29.86,NW,315,3.0,6.0,27,0.00,,,0.00,Wunderground v.1.15,2013-04-26 05:16:00,
2013-04-25 22:21:00,56.1,23.4,29.86,NW,318,4.0,5.0,28,0.00,,,0.00,Wunderground v.1.15,2013-04-26 05:21:00,
2013-04-25 22:26:00,56.0,23.3,29.86,NW,319,3.0,5.0,28,0.00,,,0.00,Wunderground v.1.15,2013-04-26 05:26:00,
2013-04-25 22:31:00,56.2,22.6,29.86,West,264,2.0,4.0,27,0.00,,,0.00,Wunderground v.1.15,2013-04-26 05:31:00,
2013-04-25 22:36:00,56.3,22.7,29.86,WNW,298,4.0,8.0,27,0.00,,,0.00,Wunderground v.1.15,2013-04-26 05:36:00,
2013-04-25 22:41:00,56.3,21.8,29.87,WNW,289,4.0,6.0,26,0.00,,,0.00,Wunderground v.1.15,2013-04-26 05:41:00,
2013-04-25 22:46:00,56.4,21.9,29.87,WNW,293,3.0,6.0,26,0.00,,,0.00,Wunderground v.1.15,2013-04-26 05:46:00,
2013-04-25 22:51:00,56.2,21.7,29.87,WNW,288,3.0,6.0,26,0.00,,,0.00,Wunderground v.1.15,2013-04-26 05:51:00,
2013-04-25 22:56:00,55.9,21.5,29.87,WNW,300,4.0,6.0,26,0.00,,,0.00,Wunderground v.1.15,2013-04-26 05:56:00,
2013-04-25 23:01:00,55.4,21.0,29.88,WNW,295,1.0,4.0,26,0.00,,,0.00,Wunderground v.1.15,2013-04-26 06:01:00,
2013-04-25 23:06:00,55.0,20.7,29.88,NW,311,2.0,5.0,26,0.00,,,0.00,Wunderground v.1.15,2013-04-26 06:06:00,
2013-04-25 23:11:00,54.6,21.2,29.88,NW,309,2.0,3.0,27,0.00,,,0.00,Wunderground v.1.15,2013-04-26 06:11:00,
2013-04-25 23:16:00,54.3,21.0,29.88,NW,313,3.0,3.0,27,0.00,,,0.00,Wunderground v.1.15,2013-04-26 06:16:00,
2013-04-25 23:21:00,54.0,20.7,29.88,NW,316,2.0,3.0,27,0.00,,,0.00,Wunderground v.1.15,2013-04-26 06:21:00,
2013-04-25 23:26:00,53.9,20.6,29.88,NW,304,1.0,4.0,27,0.00,,,0.00,Wunderground v.1.15,2013-04-26 06:26:00,
2013-04-25 23:31:00,53.7,20.5,29.89,NW,316,2.0,4.0,27,0.00,,,0.00,Wunderground v.1.15,2013-04-26 06:31:00,
2013-04-25 23:36:00,53.6,20.4,29.89,NW,315,2.0,4.0,27,0.00,,,0.00,Wunderground v.1.15,2013-04-26 06:36:00,
2013-04-25 23:41:00,53.4,20.2,29.89,NW,322,0.0,2.0,27,0.00,,,0.00,Wunderground v.1.15,2013-04-26 06:41:00,
2013-04-25 23:46:00,53.2,20.9,29.89,NNW,331,1.0,3.0,28,0.00,,,0.00,Wunderground v.1.15,2013-04-26 06:46:00,
2013-04-25 23:51:00,53.1,20.8,29.89,NNW,336,0.0,2.0,28,0.00,,,0.00,Wunderground v.1.15,2013-04-26 06:51:00,
2013-04-25 23:56:00,53.0,20.7,29.89,NNW,341,0.0,2.0,28,0.00,,,0.00,Wunderground v.1.15,2013-04-26 06:56:00,